Worthington, MN

10:24 AM CST on December 10, 2019 (GMT -0600)
Worthington Municipal

Weather History for KOTG - October, 2019

Change the Weather History Date:

Friday, October 25, 2019

  Actual Average Record
Temperature  
Mean Temperature 42 °F -  
Max Temperature 57 °F 51 °F 80 °F (1989)
Min Temperature 28 °F 34 °F 19 °F (1972)
Degree Days  
Heating Degree Days 24    
Moisture  
Dew Point 28 °F    
Average Humidity 60    
Maximum Humidity 89    
Minimum Humidity 34    
Precipitation  
Precipitation 0.00 in - - ()
Sea Level Pressure  
Sea Level Pressure 30.23 in    
Wind  
Wind Speed 10 mph (SSW)    
Max Wind Speed 20 mph    
Max Gust Speed 25 mph    
Visibility 10 miles    
Events      
Averages and records for this station are not official NWS values.
T = Trace of Precipitation, MM = Missing Value Source: NWS Daily Summary

Daily Weather History Graph

Daily Weather History Graph

Search for Another Location

Airport or City:

Astronomy

Oct. 25, 2019 Rise Set
Actual Time 7:48 AM CDT 6:23 PM CDT
Civil Twilight 7:19 AM CDT 6:52 PM CDT
Nautical Twilight 6:45 AM CDT 7:26 PM CDT
Astronomical Twilight 6:12 AM CDT 7:59 PM CDT
Moon 4:23 AM CDT (10/25) 5:33 PM CDT (10/25)
Length of Visible Light 11h 33m
Length of Day
10h 34m
Waning Crescent, 9% of the Moon is Illuminated
Oct 25
Waning Crescent
Oct 27
New
Nov 4
First Quarter
Nov 12
Full
Nov 19
Last Quarter

Hourly Weather History & Observations

Time (CDT) Temp. Windchill Dew Point Humidity Pressure Visibility Wind Dir Wind Speed Gust Speed Precip Events Conditions
12:56 AM 28.9 °F 21.9 °F 25.0 °F 85% 30.39 in 10.0 mi SSW 6.9 mph - N/A   Clear
1:56 AM 28.9 °F 22.8 °F 25.0 °F 85% 30.37 in 10.0 mi SSW 5.8 mph - N/A   Clear
2:56 AM 28.9 °F 22.8 °F 26.1 °F 89% 30.37 in 10.0 mi SSW 5.8 mph - N/A   Clear
3:56 AM 32.0 °F 24.8 °F 27.0 °F 82% 30.35 in 10.0 mi SW 8.1 mph - N/A   Clear
4:56 AM 33.1 °F 26.1 °F 27.0 °F 78% 30.35 in 10.0 mi SW 8.1 mph - N/A   Clear
5:56 AM 33.1 °F 26.1 °F 26.1 °F 75% 30.35 in 10.0 mi SSW 8.1 mph - N/A   Clear
6:56 AM 33.1 °F 24.9 °F 25.0 °F 72% 30.35 in 10.0 mi SSW 10.4 mph - N/A   Clear
7:56 AM 30.9 °F 23.5 °F 25.0 °F 79% 30.34 in 10.0 mi SSW 8.1 mph - N/A   Clear
8:56 AM 33.1 °F 24.9 °F 26.1 °F 75% 30.33 in 10.0 mi SSW 10.4 mph - N/A   Clear
9:56 AM 37.9 °F 30.9 °F 28.0 °F 68% 30.32 in 10.0 mi SSW 10.4 mph - N/A   Clear
10:56 AM 44.1 °F 37.4 °F 28.9 °F 55% 30.29 in 10.0 mi SSW 13.8 mph - N/A   Clear
11:56 AM 48.9 °F - 30.0 °F 48% 30.27 in 10.0 mi SSW 12.7 mph 19.6 mph N/A   Clear
12:56 PM 52.0 °F - 30.0 °F 43% 30.24 in 10.0 mi SSW 16.1 mph 20.7 mph N/A   Clear
1:56 PM 55.0 °F - 28.9 °F 37% 30.18 in 10.0 mi SW 16.1 mph 21.9 mph N/A   Clear
2:56 PM 55.9 °F - 28.0 °F 34% 30.14 in 10.0 mi SSW 19.6 mph 25.3 mph N/A   Clear
3:56 PM 55.9 °F - 28.9 °F 36% 30.13 in 10.0 mi SSW 13.8 mph 21.9 mph N/A   Clear
4:56 PM 55.9 °F - 28.9 °F 36% 30.12 in 10.0 mi SSW 11.5 mph 19.6 mph N/A   Clear
5:56 PM 53.1 °F - 30.0 °F 41% 30.11 in 10.0 mi SSW 12.7 mph 18.4 mph N/A   Clear
6:56 PM 48.9 °F - 30.0 °F 48% 30.11 in 10.0 mi South 15.0 mph 19.6 mph N/A   Clear
7:56 PM 46.0 °F 40.2 °F 30.0 °F 54% 30.11 in 10.0 mi South 12.7 mph 20.7 mph N/A   Clear
8:56 PM 46.0 °F 39.6 °F 28.9 °F 51% 30.10 in 10.0 mi South 15.0 mph 21.9 mph N/A   Clear
9:56 PM 45.0 °F 38.2 °F 28.9 °F 53% 30.08 in 10.0 mi South 15.0 mph 20.7 mph N/A   Clear
10:56 PM 44.1 °F 37.4 °F 28.0 °F 53% 30.06 in 10.0 mi South 13.8 mph 20.7 mph N/A   Clear
11:56 PM 43.0 °F 36.4 °F 28.9 °F 58% 30.04 in 10.0 mi SSW 12.7 mph 18.4 mph N/A   Clear